Weather History for Louisville Bowman, KY

Change the Weather History Date:

Tuesday, May 6, 2014

  Actual Average Record
Temperature  
Mean Temperature 72 °F 63 °F  
Max Temperature 87 °F 73 °F 94 °F (1949)
Min Temperature 56 °F 53 °F 35 °F (1968)
Degree Days  
Heating Degree Days 0 4  
Month to date heating degree days 23 25  
Since 1 July heating degree days 4664 4216  
Cooling Degree Days 7 2  
Month to date cooling degree days 19 11  
Year to date cooling degree days 53 45  
Growing Degree Days 23 (Base 50)    
Moisture  
Dew Point 54 °F    
Average Humidity 52    
Maximum Humidity 67    
Minimum Humidity 37    
Precipitation  
Precipitation 0.00 in 0.18 in 1.84 in (1971)
Month to date precipitation T 1.11  
Year to date precipitation 15.41 15.91  
Sea Level Pressure  
Sea Level Pressure 29.86 in    
Wind  
Wind Speed 3 mph (ENE)    
Max Wind Speed 12 mph    
Max Gust Speed 16 mph    
Visibility 10 miles    
Events      
T = Trace of Precipitation, MM = Missing Value Source: NWS Daily Summary

Daily Weather History Graph

Daily Weather History Graph

Search for Another Location

Airport:

Trip Planner

Search our weather history database for the weather conditions in past years. The results will help you decide how hot, cold, wet, or windy it might be!

Date:

Astronomy

May. 06, 2014 Rise Set
Actual Time 6:40 AM EDT 8:38 PM EDT
Civil Twilight 6:11 AM EDT 9:07 PM EDT
Nautical Twilight 5:36 AM EDT 9:42 PM EDT
Astronomical Twilight 4:58 AM EDT 10:20 PM EDT
Moon 12:54 PM EDT (5/6) 1:58 AM EDT (5/6)
Length of Visible Light 14h 55m
Length of Day
13h 58m
Waxing Crescent, 46% of the Moon is Illuminated
May 6
Waxing Crescent
May 6
First Quarter
May 14
Full
May 21
Last Quarter
May 28
New

Hourly Weather History & Observations

Time (EDT) Temp. Heat Index Dew Point Humidity Pressure Visibility Wind Dir Wind Speed Gust Speed Precip Events Conditions
12:53 AM 66.9 °F - 50.0 °F 54% 29.85 in 10.0 mi NNE 3.5 mph - N/A   Clear
1:53 AM 64.4 °F - 50.0 °F 59% 29.86 in 10.0 mi North 3.5 mph - N/A   Clear
2:53 AM 63.0 °F - 48.9 °F 60% 29.84 in 10.0 mi NE 4.6 mph - N/A   Clear
3:53 AM 61.0 °F - 48.0 °F 62% 29.84 in 10.0 mi NNE 3.5 mph - N/A   Clear
7:53 AM 60.1 °F - 46.9 °F 62% 29.90 in 10.0 mi ENE 5.8 mph - N/A   Clear
8:53 AM 62.1 °F - 48.0 °F 60% 29.91 in 10.0 mi NE 4.6 mph - N/A   Clear
10:53 AM 70.0 °F - 52.0 °F 53% 29.91 in 10.0 mi NE 5.8 mph - N/A   Clear
11:53 AM 72.0 °F - 52.0 °F 49% 29.90 in 10.0 mi Variable 3.5 mph - N/A   Clear
12:53 PM 75.9 °F - 54.0 °F 46% 29.90 in 10.0 mi East 3.5 mph - N/A   Clear
1:53 PM 79.0 °F - 55.9 °F 45% 29.88 in 10.0 mi Calm Calm - N/A   Clear
2:53 PM 82.9 °F 82.6 °F 57.9 °F 42% 29.86 in 10.0 mi Variable 4.6 mph - N/A   Clear
3:53 PM 84.9 °F 84.4 °F 59.0 °F 41% 29.83 in 10.0 mi South 6.9 mph - N/A   Clear
4:53 PM 86.0 °F 85.0 °F 57.9 °F 38% 29.82 in 10.0 mi Variable 6.9 mph - N/A   Partly Cloudy
5:53 PM 86.0 °F 85.0 °F 57.9 °F 38% 29.82 in 10.0 mi South 6.9 mph - N/A   Mostly Cloudy
6:53 PM 86.0 °F 84.9 °F 57.0 °F 37% 29.82 in 10.0 mi SSW 5.8 mph - N/A   Partly Cloudy
7:53 PM 84.9 °F 83.7 °F 55.9 °F 37% 29.83 in 10.0 mi South 8.1 mph - N/A   Clear
8:53 PM 82.9 °F 82.0 °F 55.0 °F 38% 29.84 in 10.0 mi Calm Calm - N/A   Clear
9:53 PM 79.0 °F - 55.9 °F 45% 29.86 in 10.0 mi Calm Calm - N/A   Clear
10:53 PM 75.9 °F - 54.0 °F 46% 29.87 in 10.0 mi Calm Calm - N/A   Clear
11:53 PM 71.1 °F - 54.0 °F 55% 29.87 in 10.0 mi Calm Calm - N/A   Clear